Wind_Speed
12 12 12 12 12 12 12 12 11 11 11 11 13 14 15 16 9 5 6 5 6 12 10 7 6 5 2 2 4 3 2 2 4 5 5 3 2 3 2 1 2 0 1 1 1 0 0 1 1 1 1 1 3 4 3 3 2 0 1 2 2 1 1 1 5 6 7 10 5 3 3 2 0 4 3 2 2 4 6 5 2 2 5 4 2 4 10
12 12 13 14 15 14 13 13 13 14 15 16 17 21 22 22 20 15 9 2 5 8 5 2 3 2 2 3 4 4 4 5 4 3 4 3 1 2 0 0 1 1 2 1 1 1 1 1 1 1 2 2 3 3 2 2 2 1 1 1 3 2 0 2 4 6 8 8 7 5 2 1 2 6 3 3 2 3 1 2 2 1 6 6 4 5 10
13 12 11 12 13 14 15 16 17 17 16 15 16 19 18 16 17 22 21 13 11 9 8 9 6 3 3 4 3 3 4 5 5 3 3 3 2 2 1 2 2 2 1 1 2 2 1 1 2 2 2 3 4 3 3 2 2 1 2 2 1 1 2 2 2 2 5 7 6 6 6 5 6 7 6 3 2 1 4 2 1 3 5 4 4 7 11
14 13 11 9 10 11 12 14 14 12 10 8 7 8 8 6 5 11 18 21 22 18 13 12 8 4 5 4 3 4 3 2 3 3 3 4 2 1 2 2 2 3 5 4 3 3 1 1 2 2 3 4 3 3 3 1 2 1 1 2 1 1 1 2 5 5 5 7 8 7 4 6 9 14 17 13 4 3 3 1 3 5 2 3 9 11 13
16 15 13 10 10 10 9 10 7 6 7 7 7 7 8 6 3 2 6 11 16 15 12 10 7 4 4 3 1 3 2 2 3 2 1 4 3 1 2 4 3 3 4 4 3 5 4 3 1 1 3 4 4 4 2 0 1 0 0 1 1 3 2 5 6 8 10 10 11 10 7 8 12 14 19 19 11 3 4 6 10 6 1 7 14 14 14
18 17 16 13 12 11 9 8 5 4 6 5 5 7 8 6 4 4 5 3 4 6 8 10 11 8 5 4 1 3 4 2 1 2 2 3 5 3 2 5 5 3 2 2 2 5 6 3 2 2 3 4 5 5 2 1 1 0 0 1 2 3 3 5 5 7 12 11 11 12 9 8 10 13 17 18 15 11 8 12 15 8 5 11 16 16 16
20 19 18 17 16 14 12 11 8 7 8 6 7 10 13 13 9 7 8 6 5 5 4 9 14 11 6 4 2 2 3 1 2 2 2 3 5 5 3 5 7 5 1 3 1 3 3 4 5 2 2 4 3 3 2 0 0 1 1 2 1 2 3 5 3 5 11 12 12 11 8 6 9 15 17 14 13 14 13 13 13 9 10 15 16 17 13
22 21 20 20 21 20 18 16 14 13 12 10 12 13 12 12 10 12 16 13 9 7 5 6 9 7 5 4 2 1 2 1 2 2 3 2 4 5 3 6 8 6 2 2 1 3 4 4 6 2 1 3 2 2 2 1 2 3 1 1 1 1 2 3 2 4 11 11 7 6 5 6 12 18 17 12 12 13 11 9 7 5 7 10 10 10 7
23 23 22 22 23 22 22 20 18 16 13 12 16 18 17 17 17 18 18 10 6 6 5 4 5 4 5 2 1 1 1 2 1 2 2 1 1 2 2 6 6 5 2 0 3 6 4 7 11 9 7 6 5 3 1 2 4 5 2 1 2 1 3 4 5 5 11 8 4 7 9 9 12 13 11 12 12 11 9 6 6 6 6 8 11 9 7
23 23 23 22 22 23 23 22 20 17 14 14 19 20 19 19 17 13 13 7 6 6 4 5 5 2 2 1 1 0 0 2 2 2 1 1 2 3 4 5 5 4 4 4 7 11 12 14 17 17 16 16 15 14 11 6 3 2 1 2 1 1 0 3 4 4 10 11 10 12 11 8 7 6 10 14 11 10 11 7 9 10 7 7 7 7 8
23 23 23 22 23 23 22 23 22 19 16 16 18 18 15 14 12 9 11 8 7 8 5 4 4 1 1 2 2 1 2 1 2 2 1 1 3 6 6 6 4 2 4 9 14 20 21 19 17 15 16 18 18 19 18 14 10 9 4 1 1 1 1 2 1 1 9 13 12 11 9 6 5 4 13 16 11 13 15 8 7 10 9 7 7 8 11
24 24 24 23 23 23 23 22 21 21 20 17 16 16 13 11 8 5 9 7 4 8 7 3 2 2 1 3 2 2 3 3 3 3 2 2 4 6 6 5 4 4 9 16 21 22 19 14 10 8 9 11 12 13 13 12 12 13 12 6 1 2 0 2 2 2 6 8 7 9 9 6 4 5 14 17 15 16 16 6 6 11 13 12 13 13 14
24 24 24 24 24 23 23 23 21 21 20 15 14 16 14 11 10 9 14 12 4 6 7 3 3 5 4 3 4 4 4 3 2 3 3 3 5 6 7 7 6 8 15 20 20 15 9 5 4 4 3 3 4 6 8 9 9 10 13 12 6 1 2 1 1 2 4 5 4 5 10 8 8 11 15 20 20 19 18 8 5 10 14 14 14 14 16
24 24 24 23 24 23 22 22 21 20 19 15 14 16 14 12 11 9 11 11 3 4 7 5 4 5 5 4 4 4 4 4 3 3 4 4 5 5 7 10 10 12 17 18 13 8 3 2 4 5 5 5 5 3 4 4 4 6 9 13 11 5 2 1 2 2 1 3 4 6 10 8 9 10 11 16 15 14 14 9 2 8 17 19 16 15 21
23 23 23 22 22 22 21 20 19 19 19 17 15 15 15 14 13 10 11 15 11 5 6 5 2 4 5 6 6 4 4 4 3 3 2 2 5 6 9 12 11 13 16 14 7 4 3 3 4 5 5 5 5 4 3 3 1 2 3 9 11 7 4 2 1 1 1 2 5 5 7 5 5 9 13 19 24 23 16 8 4 10 28 32 24 20 27
22 22 22 21 20 20 19 19 18 17 18 16 14 14 15 15 14 11 9 13 12 4 5 5 3 3 4 6 7 6 3 2 2 3 3 3 5 7 10 11 10 12 15 12 4 3 4 2 2 2 4 3 3 5 5 5 3 1 3 3 5 4 3 4 1 3 1 2 5 5 4 3 6 12 17 26 35 31 17 9 5 14 33 38 29 25 30
21 21 21 19 19 18 17 17 17 16 16 15 13 13 15 16 14 12 9 10 12 8 4 4 3 2 3 3 4 5 4 3 2 2 2 3 5 8 11 11 10 12 14 10 4 4 5 2 1 2 4 3 1 4 4 4 5 5 3 3 2 0 1 3 2 5 3 2 4 4 2 1 6 12 19 31 37 27 13 9 10 17 31 36 31 29 31
21 20 19 18 17 17 16 16 16 15 15 15 13 13 16 16 14 12 10 10 12 9 6 7 7 5 7 6 4 4 4 4 2 1 2 2 4 10 12 11 10 11 12 8 3 3 4 2 1 1 4 4 1 2 3 3 5 6 5 4 4 3 2 2 3 5 4 3 4 4 2 1 10 19 26 35 32 17 8 8 15 23 32 36 34 34 34
20 19 18 18 17 16 16 16 16 15 15 14 12 12 16 18 15 12 11 10 13 12 9 11 11 10 10 10 9 8 7 7 6 3 1 2 7 13 10 6 7 9 10 7 3 2 2 2 2 1 2 4 3 1 3 3 3 4 6 6 5 5 4 2 1 4 4 3 4 5 3 4 21 30 30 30 21 7 5 15 25 32 36 36 36 36 36
19 18 18 17 16 17 17 16 16 15 14 15 14 13 16 18 15 14 13 12 19 22 16 13 14 14 13 13 12 11 10 10 9 6 3 2 11 13 4 2 8 9 6 6 3 1 1 2 4 1 1 3 3 1 4 5 3 3 4 4 4 4 4 4 3 3 4 4 5 5 3 8 25 27 17 15 13 9 16 24 30 33 36 36 36 36 38
18 18 18 18 17 17 17 17 17 17 16 17 17 14 14 16 15 16 16 11 14 20 17 14 15 15 14 14 15 15 13 13 12 9 5 4 10 9 2 2 7 6 3 3 2 1 1 1 2 1 1 2 2 2 4 5 6 5 3 2 4 3 2 4 4 3 5 5 3 5 6 11 23 22 11 11 19 25 29 30 30 33 37 38 36 37 41
19 18 18 18 18 18 18 18 18 18 18 18 17 14 15 18 19 18 15 10 12 20 19 16 15 14 14 15 15 15 15 14 13 12 10 7 7 7 2 2 5 5 3 2 1 2 2 1 1 2 2 2 2 2 2 1 5 6 2 2 2 5 6 7 4 3 5 5 4 10 15 21 29 28 22 27 36 39 39 39 37 38 41 41 40 42 47
20 19 19 19 19 19 19 19 19 19 18 18 17 17 17 18 19 17 12 10 17 25 21 16 14 13 14 15 16 16 16 15 13 13 12 9 7 6 3 3 6 6 3 2 2 2 2 2 2 1 2 2 1 2 2 1 3 4 5 4 3 9 17 11 1 5 9 6 9 21 26 30 36 34 32 36 42 43 44 43 41 41 43 44 45 47 50
20 20 20 20 20 20 20 20 20 20 19 19 18 18 18 18 17 16 13 11 15 18 16 12 11 11 13 15 16 16 16 16 14 14 13 10 8 5 3 5 7 6 5 5 6 5 3 3 2 1 2 3 1 1 3 3 3 2 6 4 1 12 22 12 2 8 10 5 12 23 28 33 37 35 36 40 42 43 45 44 43 45 47 49 51 50 50
21 21 21 21 21 21 21 21 21 20 20 19 18 16 16 17 17 15 13 10 10 11 10 8 9 12 14 14 14 15 16 17 17 15 13 11 9 6 5 7 9 9 9 9 9 7 5 4 2 1 2 3 1 1 3 3 2 2 5 4 3 12 17 10 5 10 9 7 15 26 33 37 38 36 39 44 46 48 49 47 48 50 53 55 56 53 51
21 21 21 21 21 21 21 21 21 21 19 17 15 15 16 17 17 16 14 11 9 9 9 7 7 11 12 10 11 12 14 16 18 16 13 13 11 8 7 9 10 11 11 10 9 7 6 4 2 1 2 2 1 1 3 4 4 4 5 5 7 11 11 9 9 10 8 10 19 28 29 29 31 36 41 45 49 52 51 50 51 53 56 58 58 56 55
21 21 21 21 21 21 22 21 20 19 18 15 13 14 15 16 16 15 14 11 7 5 6 6 8 10 9 8 9 9 11 17 19 16 13 14 12 10 9 11 11 11 10 8 6 5 4 2 1 3 4 4 4 4 4 2 2 5 3 7 12 11 8 9 10 9 7 10 21 27 21 17 27 40 45 47 51 51 49 49 53 56 59 59 59 60 61
21 21 21 21 21 21 21 20 19 18 16 15 13 11 12 16 17 15 14 12 8 5 9 14 13 10 8 7 7 8 12 18 19 15 14 15 13 11 11 12 12 11 8 5 3 2 3 2 3 4 4 4 4 4 4 1 4 5 3 10 15 12 9 10 9 8 12 19 29 33 26 24 34 45 47 48 51 49 47 51 56 58 60 60 60 61 62
20 20 20 20 20 20 20 19 18 17 16 15 12 8 9 16 18 14 13 13 10 10 16 18 12 7 6 6 6 7 13 20 18 15 15 16 14 14 14 14 12 10 7 4 4 3 3 5 6 6 5 4 3 3 3 3 3 2 5 14 18 16 18 20 18 16 20 28 35 38 34 34 40 46 48 49 49 48 50 54 56 59 61 61 60 60 59
20 20 20 20 20 20 20 19 18 18 18 17 13 6 6 13 16 14 12 11 8 8 11 11 7 5 6 5 5 7 15 20 17 16 18 16 14 16 16 14 12 9 6 4 3 3 4 6 5 4 4 4 3 1 1 3 1 1 10 22 24 23 26 28 26 24 26 32 38 40 39 41 44 47 50 52 53 53 54 55 56 59 62 61 60 59 58
19 19 20 20 20 20 20 19 19 20 19 18 14 8 6 9 12 13 11 9 8 8 9 10 8 6 5 4 5 9 18 20 17 19 21 17 15 18 17 15 13 10 6 3 4 4 5 4 3 2 3 4 3 1 2 3 1 4 17 27 27 28 31 32 32 32 34 37 40 40 41 45 48 48 50 55 59 58 56 57 59 62 62 61 60 59 59
19 19 20 20 19 20 19 19 20 20 19 19 18 15 11 9 10 10 9 9 8 7 8 8 6 3 1 4 5 11 21 21 17 21 23 17 16 20 18 15 13 10 7 4 4 4 3 3 3 4 4 3 1 2 3 4 2 7 20 28 29 33 37 36 36 38 40 41 41 37 37 44 49 49 51 58 60 59 58 60 62 63 62 62 62 60 60
18 19 19 19 19 19 18 18 19 19 19 19 18 17 14 12 11 10 8 10 12 10 8 6 4 1 2 4 3 12 24 21 17 23 25 17 17 20 18 15 12 8 5 4 3 3 3 3 3 3 2 1 2 4 4 3 5 13 23 28 31 36 40 40 41 42 43 46 45 39 38 45 51 53 57 61 61 59 59 61 61 62 63 62 61 61 61
17 18 19 18 18 17 16 17 18 17 17 16 15 15 15 14 14 12 9 9 11 13 11 9 5 0 4 5 2 11 25 23 17 21 21 16 16 19 15 11 9 5 3 4 4 4 3 2 3 3 1 3 5 5 3 6 12 19 25 29 33 38 41 43 45 47 48 51 53 51 50 52 54 57 61 65 64 64 64 63 61 61 62 61 60 60 62
16 17 17 17 17 15 14 16 16 15 15 15 14 15 15 14 16 17 13 10 10 11 10 10 7 2 5 5 2 12 24 22 17 19 16 13 16 17 11 7 5 3 3 6 5 3 2 3 4 3 1 4 5 3 2 10 18 24 28 32 36 39 39 41 46 51 54 56 57 58 58 56 55 57 61 65 66 66 65 64 63 62 61 61 61 62 63
15 16 16 16 15 13 12 14 15 14 14 13 12 12 12 12 14 16 16 16 17 14 9 7 6 4 4 1 3 14 21 17 16 19 15 10 13 14 8 5 3 3 6 6 2 2 4 5 4 3 2 4 3 1 6 14 22 28 32 34 37 39 40 42 48 53 56 58 59 60 60 59 57 58 60 62 65 65 63 63 63 62 61 62 63 64 64
14 15 15 14 13 12 12 14 15 13 12 10 9 9 9 9 9 10 12 17 21 20 16 10 6 5 6 2 6 14 16 12 15 17 11 8 12 10 5 3 3 5 8 4 2 5 9 5 2 3 2 4 5 9 18 24 28 31 33 36 40 43 44 46 51 54 55 56 58 60 62 61 61 62 63 64 65 66 64 63 61 60 61 62 63 63 65
14 14 14 13 13 12 12 13 12 11 9 8 7 7 7 6 5 6 10 13 14 16 18 13 8 9 10 5 7 13 12 10 13 12 7 8 11 7 3 4 4 5 5 1 2 9 9 3 3 4 2 5 5 17 28 32 33 35 38 40 44 46 46 48 51 52 51 50 53 56 57 58 59 62 65 66 66 66 65 64 62 62 63 64 64 65 66
14 14 13 13 13 11 10 10 10 8 8 7 6 5 5 6 5 5 8 9 8 10 14 12 9 12 13 10 10 12 11 10 10 6 5 8 8 4 3 5 5 5 4 1 4 10 7 1 1 4 1 2 8 20 30 34 37 41 44 45 46 47 47 49 52 52 51 51 53 56 57 56 56 59 62 64 66 66 66 65 65 65 66 66 66 65 64
13 13 13 13 12 10 9 9 9 7 6 6 6 5 6 8 7 4 5 5 5 7 10 8 8 12 13 10 8 9 11 11 7 4 5 6 4 3 4 3 4 5 2 2 5 9 4 1 2 3 1 4 12 23 32 38 41 45 47 47 47 48 49 51 53 55 55 57 59 61 62 61 60 60 61 62 63 64 64 65 67 67 66 65 64 63 63
14 14 12 11 10 9 8 8 8 7 5 5 6 5 5 5 6 5 5 4 2 4 8 9 9 13 15 12 9 9 11 11 7 5 4 4 4 5 3 2 4 4 1 3 7 7 2 1 2 1 2 8 19 29 38 43 45 46 46 46 48 50 51 54 56 58 59 61 63 65 66 66 65 63 62 62 62 62 62 65 67 66 63 61 61 63 63
14 13 11 9 8 8 7 7 7 6 5 5 5 3 3 3 3 4 5 3 1 5 8 9 10 13 15 13 11 10 9 9 8 4 2 3 6 4 1 1 3 2 2 6 8 4 2 2 2 1 5 16 27 35 41 43 44 46 46 46 49 52 53 55 58 59 61 63 64 66 67 68 68 66 64 63 62 62 62 64 64 62 61 60 60 59 59
12 11 10 7 6 7 6 6 7 6 4 4 4 2 2 3 2 1 2 2 2 5 8 10 12 13 12 11 12 11 7 6 7 4 1 4 7 4 2 2 2 1 4 7 5 2 1 1 2 3 13 25 33 39 42 43 45 48 49 49 51 53 54 56 57 60 63 65 65 67 69 69 69 68 65 62 62 63 64 64 62 60 61 61 58 56 58
10 10 8 4 5 6 5 4 6 6 3 2 2 1 1 3 2 1 1 2 4 6 8 11 13 13 10 11 13 9 4 4 5 4 3 5 5 2 2 1 2 4 6 5 2 0 2 2 1 10 23 33 38 42 44 44 46 48 50 52 54 55 55 57 59 61 64 65 66 68 70 70 70 69 67 64 63 63 62 63 63 63 61 59 58 61 64
9 8 5 2 5 8 5 2 4 5 2 0 0 2 3 2 2 2 1 3 5 7 9 11 12 13 12 11 9 5 3 5 5 3 3 5 3 1 1 3 2 3 3 1 1 2 2 2 8 21 31 36 41 45 45 46 47 47 49 53 56 56 56 58 59 61 63 65 66 68 69 69 70 69 67 66 64 62 61 61 62 60 58 59 65 70 69
8 7 5 3 4 7 5 1 2 2 1 2 2 3 4 3 2 1 2 4 6 8 10 12 12 12 12 9 5 2 4 5 4 2 3 3 0 1 3 3 2 3 3 1 3 3 2 4 15 27 34 39 44 46 46 47 47 47 49 53 55 56 57 58 59 61 63 65 66 67 68 68 69 68 67 66 64 63 62 61 57 54 57 63 67 69 67
6 5 5 4 2 3 4 2 1 1 3 4 4 4 3 1 0 0 2 4 6 8 11 12 10 8 6 5 3 3 4 5 3 2 3 2 1 3 4 3 1 0 1 2 3 3 3 11 25 34 39 42 45 46 47 48 47 47 50 53 55 56 57 58 59 61 63 65 65 66 66 67 67 67 66 66 65 65 63 59 54 56 61 65 64 64 65
4 3 4 3 1 1 2 2 4 5 5 5 4 3 1 1 1 1 2 4 6 9 11 11 8 4 3 3 2 2 3 4 3 2 2 1 1 2 3 2 1 2 2 3 4 4 9 21 33 40 41 43 44 45 46 47 47 48 51 54 55 56 57 58 59 61 63 64 64 65 64 64 64 64 64 64 66 65 60 56 57 61 64 64 64 65 64
5 5 4 4 3 2 3 5 5 5 5 4 3 2 1 1 2 2 2 4 7 8 9 8 5 3 2 2 2 1 2 2 2 2 3 3 1 1 1 1 3 4 2 3 4 11 21 31 38 41 42 43 45 45 46 47 47 49 52 54 54 55 57 58 59 60 61 62 63 64 63 62 62 61 61 63 66 64 59 57 61 65 64 62 63 64 60
7 6 6 5 3 3 5 5 4 3 5 5 3 2 1 1 1 2 3 5 7 7 6 5 3 2 2 2 2 1 1 1 0 1 2 1 1 1 0 2 3 4 4 7 14 23 30 35 38 40 42 44 45 45 45 47 49 51 54 54 53 54 56 58 59 59 59 61 62 64 64 63 61 59 59 62 63 62 59 58 61 63 62 62 62 60 55
5 5 5 5 4 5 6 5 2 3 4 5 3 2 1 1 1 2 4 6 6 5 3 3 2 2 2 2 1 0 1 1 1 1 1 2 2 2 1 4 5 7 13 21 26 30 33 35 37 39 43 45 46 45 45 46 49 53 55 54 52 52 55 58 59 59 59 61 62 63 64 63 60 58 59 61 62 62 64 66 66 64 63 64 61 56 52
4 4 4 5 5 6 5 3 2 2 2 2 2 2 1 1 1 2 4 5 4 3 2 1 1 2 2 0 1 1 0 1 1 1 2 3 4 4 4 6 11 17 24 30 32 32 33 36 38 40 42 44 45 44 44 46 50 53 54 53 52 52 54 57 58 59 60 62 62 61 60 60 59 59 61 63 63 63 66 70 71 68 66 64 59 55 54
Wind_Direction
63 73 76 76 81 89 98 101 101 101 103 107 107 96 79 72 66 34 44 62 94 94 71 17 33 71 102 117 81 70 92 56 21 21 32 28 19 36 51 77 56 173 218 346 314 301 269 281 2 13 273 266 223 241 315 306 258 210 299 322 7 18 90 44 291 283 279 289 313 96 135 131 269 263 235 214 213 157 176 206 219 277 277 260 183 250 270
63 74 82 85 85 86 91 98 101 102 104 105 100 93 84 74 63 49 44 92 112 91 94 99 75 90 137 86 57 58 66 50 33 23 21 11 44 66 357 333 37 267 206 128 263 297 40 333 5 5 274 272 242 245 331 316 229 140 240 324 11 331 238 54 346 330 330 327 347 358 331 18 285 269 244 203 194 111 152 241 81 290 254 224 192 248 266
65 74 87 91 88 86 89 99 105 105 104 102 94 92 88 78 64 52 55 81 97 90 116 130 125 155 116 69 41 55 52 42 47 50 35 31 82 113 304 279 286 302 3 69 314 355 51 290 343 5 307 279 243 247 321 291 218 283 249 212 38 281 209 102 83 340 317 312 316 308 303 324 309 288 291 266 184 215 290 293 111 246 247 200 199 248 269
67 74 85 90 89 93 102 111 109 97 94 93 84 87 85 79 68 49 55 72 82 82 98 110 114 140 118 69 29 52 54 27 41 45 45 34 43 122 10 322 286 358 33 31 331 330 345 298 351 357 298 282 255 264 321 279 217 300 270 207 147 86 226 200 172 188 235 255 259 264 281 300 293 293 295 291 263 216 237 190 210 233 265 268 248 259 280
69 75 82 85 87 93 111 125 114 82 81 85 79 83 83 72 56 33 53 64 69 67 67 80 96 136 128 102 34 45 27 341 16 19 21 21 18 106 53 34 42 16 22 34 324 311 337 348 332 293 269 267 281 285 280 252 209 230 189 227 145 75 318 254 198 214 244 248 260 275 284 278 275 282 286 290 297 272 197 226 244 238 348 281 267 276 287
71 75 78 81 84 86 96 105 99 84 84 83 77 71 75 87 87 83 93 85 56 56 53 68 79 83 93 99 76 45 36 25 19 320 321 16 26 36 18 16 23 352 338 71 321 318 346 342 287 297 299 305 329 322 265 146 112 173 333 258 147 109 280 249 192 235 259 260 267 275 275 270 266 266 273 285 300 293 260 252 255 246 238 260 271 284 288
71 75 77 79 79 78 80 80 76 75 73 73 93 92 93 107 107 82 86 100 111 110 92 80 77 65 57 69 59 67 70 57 254 294 350 359 8 30 25 333 338 324 288 109 65 313 355 324 298 299 317 315 329 325 309 120 30 302 273 260 167 121 266 259 215 255 271 269 267 267 263 269 280 279 280 288 290 281 270 263 262 251 240 254 274 286 295
71 74 77 78 77 74 72 70 67 69 75 82 95 100 104 114 116 108 102 95 86 88 78 75 76 49 32 64 47 43 118 187 263 359 43 358 340 23 30 307 309 303 270 126 188 246 198 232 259 240 329 320 272 252 294 281 313 335 335 296 32 106 276 304 3 311 292 280 268 267 260 267 283 287 291 302 304 299 294 287 292 291 270 281 303 309 326
69 72 74 75 77 76 72 71 67 66 78 91 94 98 106 113 119 118 110 87 37 54 54 56 82 38 13 71 200 303 140 196 205 37 44 78 338 350 328 309 315 325 334 269 270 281 248 241 259 261 259 258 243 247 310 39 351 343 338 322 16 53 289 333 27 344 299 294 319 313 300 294 289 289 306 319 317 318 314 317 4 16 351 358 9 357 344
70 71 73 74 77 79 78 77 73 67 69 80 92 102 110 114 118 117 106 82 19 32 34 31 70 61 335 69 169 299 194 204 119 61 333 22 23 344 339 338 343 348 338 315 303 308 303 284 281 277 262 252 252 258 269 283 289 288 316 316 291 119 343 326 9 332 294 305 329 320 319 331 311 315 346 336 328 340 339 355 41 36 25 25 14 347 332
73 74 75 75 76 78 79 80 78 75 68 64 81 100 107 110 115 105 97 90 19 20 40 36 57 113 266 56 59 55 95 123 78 68 316 341 18 2 355 354 352 319 299 313 316 314 310 302 293 280 264 258 258 259 266 270 251 230 218 248 312 65 100 278 278 244 288 306 327 329 330 329 288 346 15 359 351 358 353 7 51 38 35 27 350 336 340
75 75 76 75 76 75 75 76 75 74 71 60 70 89 93 95 102 85 92 101 19 29 64 63 40 83 85 73 67 42 49 40 37 46 12 352 15 8 1 4 2 315 313 321 320 316 313 310 298 279 263 258 257 257 261 264 253 239 224 210 278 354 153 251 245 202 278 311 354 342 318 300 293 14 27 12 2 357 350 4 66 33 21 12 353 345 342
74 74 74 72 72 71 70 71 69 68 68 60 62 76 78 79 85 85 93 98 49 27 74 95 64 76 79 68 66 51 35 41 52 45 35 18 7 3 1 356 339 324 327 327 323 320 318 313 313 309 295 283 275 263 254 249 244 236 224 214 211 194 170 246 270 213 281 322 9 314 294 313 2 18 18 8 2 351 338 336 51 31 16 6 353 342 337
72 72 72 70 70 69 67 67 68 67 67 62 59 68 70 68 73 79 91 99 84 27 80 93 44 52 65 44 42 36 21 34 43 25 27 15 356 360 1 351 340 337 339 335 330 334 344 3 5 340 323 358 7 321 279 260 219 200 215 213 198 170 131 301 283 206 219 292 277 283 295 321 12 12 359 359 349 326 316 303 279 25 13 3 351 341 338
70 70 70 69 68 67 65 64 64 65 65 59 55 61 65 63 64 69 91 110 117 69 55 75 21 23 48 41 36 28 7 20 24 1 11 13 0 5 2 354 351 349 348 346 344 7 41 42 19 351 334 358 351 307 312 338 263 153 204 206 192 185 183 174 272 266 107 302 289 303 304 305 358 344 336 346 336 317 307 288 255 10 3 354 349 340 333
68 68 68 68 67 65 63 62 59 58 60 56 50 55 61 59 58 62 81 108 116 80 34 73 73 28 43 51 49 50 32 12 5 351 344 352 3 5 359 356 356 354 355 356 356 37 45 38 26 341 306 306 314 300 316 334 319 27 61 139 163 195 205 142 148 273 289 318 284 282 283 300 357 340 336 345 338 324 312 299 306 358 351 343 339 330 322
64 64 64 64 64 62 60 58 55 53 55 55 49 50 57 58 55 55 62 88 101 94 61 80 80 38 60 56 32 38 29 358 13 32 336 312 338 355 357 359 0 359 0 3 13 50 39 9 17 351 280 250 313 306 306 330 314 311 355 32 73 93 216 133 206 257 249 209 251 272 272 280 339 334 341 347 341 335 338 333 327 340 335 328 324 318 314
59 60 59 58 57 55 53 51 49 46 45 47 45 45 52 53 48 49 56 77 94 92 70 73 79 75 79 69 43 48 32 2 9 358 292 296 346 347 347 356 5 1 360 8 42 54 26 335 349 353 270 273 344 287 279 323 302 296 319 327 317 306 274 174 208 266 272 228 253 293 243 232 345 347 353 354 349 351 15 335 311 317 318 316 316 313 312
55 54 53 52 50 48 45 43 41 38 38 40 37 39 47 45 40 42 48 72 97 100 86 80 81 80 81 77 68 69 56 37 40 28 9 37 349 335 332 357 10 355 353 11 44 55 27 316 296 104 242 292 326 289 283 286 256 294 324 317 312 313 299 265 237 284 288 242 269 290 236 27 4 353 351 359 3 4 336 311 304 308 310 310 313 313 312
52 50 48 46 43 42 40 36 35 32 32 35 32 34 44 44 41 45 49 75 105 105 93 87 88 85 85 82 75 73 66 54 51 54 89 27 342 341 347 13 352 345 354 13 13 6 50 299 299 346 192 269 294 309 302 289 250 273 291 283 303 313 306 318 317 295 307 311 319 313 275 10 4 351 346 11 12 320 303 306 304 308 311 311 313 313 315
48 46 45 41 38 38 34 31 32 28 25 32 29 25 39 43 40 46 45 55 102 107 98 95 95 88 86 83 76 73 69 61 55 51 49 11 358 12 83 252 328 345 2 11 346 289 286 260 274 309 256 263 307 313 303 312 303 277 214 212 323 349 1 323 314 351 352 327 324 336 315 338 352 348 336 341 335 320 316 314 310 313 317 316 315 316 318
45 43 42 39 36 36 31 30 31 26 26 32 25 17 35 43 41 46 44 43 87 102 105 105 99 91 88 86 78 72 67 61 55 49 41 31 28 37 56 287 334 346 338 348 328 276 310 285 240 313 302 283 309 288 240 301 304 299 342 24 12 36 8 318 284 358 338 268 272 325 328 335 343 342 331 327 328 327 326 322 318 318 320 320 319 319 321
42 40 39 37 35 34 32 30 31 28 28 31 26 25 39 47 45 48 48 59 88 100 106 105 98 91 87 86 80 72 65 56 49 44 38 33 30 28 19 353 347 330 308 317 280 251 276 258 224 283 284 242 267 304 301 294 258 282 348 8 93 33 5 348 292 334 320 295 328 336 334 336 336 332 328 327 327 326 326 323 321 320 320 320 320 319 319
41 38 36 35 32 31 30 29 30 29 28 30 30 32 41 49 50 49 50 64 90 103 106 100 97 96 91 87 81 70 59 51 42 36 31 27 24 19 356 342 337 320 296 294 289 280 292 285 248 208 266 254 235 260 278 286 256 287 347 350 34 9 3 3 6 340 332 325 342 339 332 329 328 324 324 326 325 325 325 323 321 320 320 320 320 319 319
39 37 35 33 31 30 29 29 29 27 28 32 35 35 41 48 49 47 50 66 92 109 109 98 103 110 106 94 79 64 51 41 32 26 23 19 16 7 342 333 330 319 303 296 291 281 273 269 252 192 251 261 267 228 238 269 305 4 24 16 324 345 356 0 345 340 329 303 325 332 327 323 324 323 324 326 326 325 325 324 323 322 321 321 321 321 320
38 36 34 32 30 29 28 28 28 26 28 32 34 34 38 45 48 46 48 59 81 99 103 105 120 122 115 95 69 56 44 30 21 18 19 14 5 357 345 336 330 321 311 305 299 281 254 244 248 199 210 236 259 265 262 290 331 34 64 27 346 345 353 349 329 325 313 305 327 332 325 319 322 325 325 326 325 323 323 323 323 322 321 321 322 322 321
37 35 32 30 29 28 27 28 27 25 26 28 31 34 37 40 44 45 46 51 61 75 93 118 137 134 119 90 64 55 38 19 11 11 14 11 4 357 346 338 333 325 315 308 301 274 236 231 239 216 227 262 285 285 275 282 57 87 73 3 360 2 357 345 334 327 321 321 329 331 324 315 321 324 324 324 324 322 321 322 322 322 322 322 322 322 322
35 33 31 29 27 26 26 26 25 24 25 24 23 28 32 33 37 42 44 47 51 77 116 126 131 131 119 87 64 54 29 11 7 11 13 9 4 359 350 343 339 332 322 308 291 247 195 218 268 260 270 298 308 303 302 343 86 92 25 358 4 4 351 344 335 318 315 319 324 326 322 313 316 321 322 322 323 322 322 322 323 322 322 322 322 321 320
32 30 29 27 26 25 23 23 22 22 23 21 15 14 25 31 35 39 42 48 60 92 115 120 119 118 116 90 67 49 17 6 7 12 10 6 5 2 355 348 342 337 328 298 271 249 230 249 270 280 293 309 304 294 324 5 75 106 0 356 359 356 349 345 334 316 314 319 324 325 322 315 317 321 322 322 324 324 323 322 322 321 321 321 321 319 317
29 27 25 23 22 22 20 18 18 19 20 18 12 11 30 33 33 35 42 56 71 89 108 115 108 111 116 89 57 28 6 2 6 9 5 5 7 3 356 351 347 345 340 308 269 272 279 276 277 275 276 300 312 285 4 18 105 148 351 351 350 348 346 343 336 325 320 322 325 325 323 320 322 324 324 324 325 325 323 322 321 321 320 320 319 318 317
26 24 22 19 20 18 16 16 18 19 18 16 19 35 44 24 23 30 42 61 76 82 97 102 101 114 113 64 38 13 2 360 3 4 2 2 3 1 358 353 348 346 344 317 274 280 287 271 267 291 294 311 333 111 80 39 55 337 345 345 343 341 340 339 337 332 327 326 328 328 326 327 329 327 324 324 326 326 323 322 322 322 321 321 320 319 318
24 22 19 18 17 15 14 17 18 17 15 17 31 49 53 31 27 38 50 66 74 83 98 93 90 116 83 24 15 3 1 1 3 1 359 360 1 359 355 350 345 347 353 337 279 279 295 259 261 312 316 313 337 92 80 61 34 328 338 341 340 340 339 338 337 335 333 332 332 330 327 329 330 326 322 322 325 325 324 323 323 324 323 322 321 320 319
21 19 17 16 15 13 16 19 18 17 20 27 40 54 55 49 47 50 63 76 73 74 84 76 69 102 12 360 341 354 359 2 1 357 356 358 358 353 348 344 343 345 357 347 282 284 313 281 278 329 342 358 69 90 85 41 345 334 338 341 341 340 339 338 338 336 335 336 336 332 326 326 328 326 324 323 325 326 326 325 325 324 324 323 322 321 322
19 17 15 13 12 13 17 20 21 21 26 36 49 56 55 56 55 54 69 83 70 68 71 62 63 82 342 342 331 357 358 358 356 354 351 349 350 348 341 337 339 346 359 340 307 298 311 311 323 340 18 64 61 74 58 340 337 340 341 342 343 343 341 340 339 338 337 337 336 332 329 329 329 328 327 326 327 328 328 327 326 325 324 323 322 323 323
17 14 12 10 11 14 18 20 22 23 29 42 55 59 60 63 58 55 63 70 67 74 70 52 57 65 350 346 335 351 353 353 351 349 342 333 340 346 341 333 345 15 347 324 313 303 325 347 341 331 65 69 57 66 331 326 333 341 344 344 345 345 343 339 338 336 336 336 334 332 332 332 331 329 328 327 327 329 329 328 328 327 324 323 323 324 324
13 12 11 10 10 13 16 17 18 23 34 50 63 66 68 69 63 61 63 61 63 75 77 60 68 61 13 322 278 334 345 348 347 347 343 330 334 342 345 346 359 353 327 324 337 351 329 332 342 345 38 70 66 7 346 344 342 344 345 344 344 345 343 339 337 335 334 334 333 332 332 332 331 329 328 326 327 328 328 327 328 327 325 324 324 324 325
11 11 10 9 8 11 14 16 19 27 39 51 64 71 70 68 67 65 58 53 57 61 61 69 80 34 8 274 284 329 341 342 341 346 351 343 336 335 342 3 359 339 332 339 51 351 328 326 20 33 86 120 83 17 1 354 348 344 344 343 343 344 342 340 337 334 333 333 333 333 332 331 331 330 329 327 328 329 328 327 326 326 325 324 324 324 325
12 10 8 7 10 14 15 15 18 28 39 49 66 76 67 61 67 56 40 42 49 47 46 57 60 20 5 340 330 346 347 336 339 348 353 349 346 345 5 21 13 354 341 319 3 353 343 338 76 61 137 152 46 5 354 349 346 345 344 343 343 342 341 339 337 335 333 331 330 330 330 328 328 330 330 328 327 328 327 327 327 327 326 326 325 325 325
9 6 5 10 15 19 19 15 17 29 44 55 72 77 51 40 42 27 20 30 40 36 36 43 37 14 2 344 342 357 355 341 343 349 347 353 360 4 1 4 4 2 356 278 354 6 5 320 57 49 129 238 341 349 347 345 344 343 342 341 341 341 340 338 337 336 333 330 328 329 329 327 326 328 328 327 327 327 327 327 328 328 328 327 327 328 329
5 5 7 12 16 19 19 17 20 34 53 60 66 68 50 39 38 27 15 25 38 32 26 19 3 360 357 342 330 344 352 351 345 319 317 342 351 333 333 348 355 360 359 248 342 5 13 274 359 54 174 297 333 343 343 343 342 340 340 340 340 340 339 338 337 336 335 333 332 331 331 330 329 329 329 328 327 326 327 327 328 329 329 329 330 331 331
7 8 8 11 15 18 22 25 31 44 63 61 54 51 44 35 33 32 31 38 35 4 4 1 351 349 349 342 323 318 334 345 339 305 295 319 335 333 327 327 351 11 161 257 328 359 55 60 5 65 259 325 338 341 341 340 339 338 338 338 338 339 339 338 337 337 336 335 334 333 332 332 332 332 331 331 329 327 327 328 328 329 330 332 332 332 331
7 6 5 9 16 20 25 32 36 44 59 60 49 39 30 27 31 30 36 50 22 340 351 356 348 337 335 334 324 311 316 334 339 322 291 322 337 346 348 342 8 46 222 293 328 3 70 20 354 260 314 338 341 340 339 338 336 335 336 337 339 339 339 338 337 337 337 335 334 333 333 333 332 333 333 332 331 329 329 329 330 330 331 331 331 331 333
5 4 2 6 17 22 25 32 35 40 51 52 45 26 7 11 19 23 28 34 13 352 348 345 341 337 337 338 333 321 313 331 340 334 308 323 329 345 47 37 27 276 289 316 348 34 7 313 197 280 330 339 339 336 336 336 335 335 336 337 338 339 338 337 337 337 336 336 335 334 333 333 333 333 334 333 332 331 332 332 332 331 330 330 332 334 335
5 4 359 359 16 19 14 16 29 39 50 52 59 90 25 351 335 263 329 348 349 349 343 337 335 334 333 337 337 330 321 343 345 338 330 332 335 15 81 33 287 300 315 332 29 82 266 227 263 332 336 337 335 334 335 335 336 335 335 335 337 338 338 337 337 336 336 336 335 334 334 333 333 333 334 334 334 334 333 334 333 332 332 333 334 334 334
8 7 7 16 19 18 16 16 32 42 65 175 143 148 166 207 229 215 257 315 325 331 333 332 328 323 323 333 340 326 313 337 344 339 342 348 357 54 240 263 287 345 354 352 346 326 290 272 330 336 336 334 332 332 333 334 335 335 334 334 336 337 337 337 337 336 335 335 334 334 333 333 333 333 333 333 334 335 335 334 333 334 335 336 335 334 335
16 19 38 69 29 18 28 54 26 41 134 179 162 141 152 166 185 209 277 311 327 335 335 333 328 322 325 340 353 322 322 341 345 337 355 10 27 276 308 312 342 20 22 337 314 314 270 302 327 332 332 330 329 330 331 333 334 334 334 334 334 335 336 336 335 335 334 334 334 334 333 333 333 333 333 333 334 335 336 335 336 336 336 335 335 335 336
24 35 53 80 63 17 33 77 134 127 142 153 148 135 134 134 145 277 306 324 341 344 339 337 334 326 327 342 341 313 334 358 357 339 358 20 226 287 341 10 59 43 341 297 282 265 280 323 328 328 327 328 328 328 330 332 333 333 334 334 333 334 334 335 335 334 334 334 334 333 333 333 333 333 333 333 334 336 337 337 337 336 335 335 336 337 337
38 44 54 94 152 3 43 119 143 137 135 144 150 145 129 14 5 341 331 348 358 349 340 340 345 342 338 350 338 300 338 3 359 338 7 28 289 316 359 18 320 281 237 210 230 268 313 325 326 324 325 326 327 328 330 331 332 333 333 333 333 333 334 334 334 334 334 334 333 333 333 332 332 333 334 334 334 336 338 337 335 335 336 337 338 339 339
61 69 84 108 123 123 129 137 139 139 143 153 168 188 256 349 7 1 358 6 4 350 338 340 349 345 331 353 5 350 1 13 6 343 357 6 10 138 116 317 302 294 248 213 275 313 322 324 324 323 324 326 327 328 330 331 331 332 333 333 333 333 333 333 333 333 334 334 333 332 332 333 334 335 336 335 335 336 337 335 334 336 338 339 339 340 340
65 73 86 91 95 135 152 146 139 153 171 183 201 226 265 337 359 12 17 9 359 349 344 350 354 344 345 15 33 31 358 357 66 28 353 314 188 150 215 248 240 247 272 302 316 320 323 324 324 323 323 325 327 329 330 331 332 333 334 333 333 333 333 333 333 333 333 334 333 333 333 335 337 338 337 336 335 335 334 334 335 338 339 339 340 341 341
67 74 84 89 110 152 161 157 157 181 189 200 219 247 291 300 314 3 10 4 358 360 9 14 11 17 26 32 44 267 284 336 68 68 274 236 190 139 166 225 239 277 307 316 320 322 324 325 324 323 324 325 327 329 331 332 333 333 333 333 333 333 333 333 334 334 334 334 334 334 335 337 340 340 338 337 337 336 335 336 338 339 339 340 342 343 341
79 94 107 116 136 154 160 161 168 174 184 221 255 275 293 281 310 358 1 358 0 10 19 23 46 59 63 41 257 260 343 23 31 346 266 229 183 170 209 263 292 309 315 318 320 323 325 326 326 325 325 326 327 330 333 333 333 333 334 333 334 334 334 334 335 335 334 334 335 336 338 340 342 341 340 340 340 339 337 337 338 339 340 340 341 342 341
Height
1538 1538 1538 1538 1538 1538 1539 1539 1539 1540 1540 1540 1540 1540 1540 1541 1545 1547 1546 1546 1545 1544 1555 1566 1568 1571 1576 1576 1576 1577 1577 1578 1578 1577 1577 1577 1576 1576 1577 1578 1577 1576 1576 1576 1574 1573 1571 1569 1569 1569 1570 1571 1572 1571 1571 1571 1571 1571 1567 1566 1567 1567 1566 1563 1554 1542 1535 1530 1530 1533 1535 1535 1533 1532 1531 1530 1529 1528 1529 1530 1528 1529 1527 1522 1528 1522 1488
1540 1540 1540 1540 1540 1540 1540 1540 1541 1541 1541 1542 1542 1541 1542 1545 1547 1548 1547 1547 1546 1547 1557 1568 1572 1575 1576 1576 1577 1578 1578 1579 1579 1579 1578 1577 1578 1577 1577 1577 1576 1575 1576 1576 1574 1573 1571 1570 1570 1571 1571 1570 1571 1571 1571 1570 1571 1571 1568 1567 1568 1564 1562 1562 1556 1548 1538 1530 1530 1531 1531 1532 1531 1528 1528 1528 1527 1529 1530 1530 1533 1531 1521 1519 1525 1515 1484
1541 1541 1541 1542 1542 1542 1542 1542 1543 1543 1543 1544 1543 1543 1544 1545 1548 1550 1549 1548 1548 1553 1560 1564 1569 1574 1575 1576 1578 1578 1579 1581 1580 1580 1579 1578 1578 1577 1577 1577 1576 1577 1576 1575 1576 1575 1573 1572 1572 1573 1571 1570 1570 1570 1570 1571 1571 1570 1569 1570 1569 1565 1563 1563 1559 1557 1554 1546 1543 1539 1534 1534 1531 1525 1526 1527 1527 1530 1529 1530 1534 1529 1519 1517 1516 1502 1482
1542 1543 1543 1543 1543 1544 1544 1544 1545 1545 1545 1545 1545 1544 1545 1546 1550 1554 1555 1553 1554 1559 1563 1564 1566 1571 1573 1575 1579 1580 1580 1581 1581 1580 1579 1578 1578 1577 1577 1577 1577 1578 1577 1577 1577 1576 1575 1575 1574 1573 1572 1569 1570 1570 1569 1570 1570 1570 1570 1570 1569 1568 1567 1563 1559 1557 1554 1549 1545 1542 1541 1542 1536 1529 1525 1523 1526 1530 1530 1533 1531 1522 1519 1516 1505 1494 1488
1544 1544 1544 1544 1545 1545 1546 1546 1546 1546 1546 1546 1546 1546 1546 1549 1554 1558 1559 1559 1561 1563 1566 1566 1567 1569 1571 1575 1580 1582 1582 1582 1580 1580 1579 1578 1579 1578 1579 1579 1579 1580 1580 1580 1579 1577 1576 1576 1574 1574 1574 1571 1570 1569 1569 1570 1570 1570 1570 1569 1569 1568 1563 1560 1561 1556 1549 1546 1544 1542 1544 1544 1540 1534 1526 1520 1524 1528 1530 1530 1521 1514 1520 1514 1496 1490 1491
1546 1546 1546 1546 1546 1547 1547 1547 1547 1548 1547 1547 1547 1547 1548 1551 1558 1561 1560 1562 1566 1568 1568 1569 1569 1569 1572 1577 1582 1582 1582 1582 1581 1580 1579 1580 1580 1580 1579 1580 1582 1583 1583 1581 1580 1578 1575 1574 1573 1574 1575 1573 1570 1567 1568 1570 1570 1570 1570 1569 1570 1568 1561 1559 1562 1556 1549 1547 1546 1544 1545 1544 1539 1534 1527 1523 1524 1525 1525 1522 1513 1513 1518 1507 1491 1490 1490
1549 1548 1548 1549 1548 1548 1549 1549 1549 1549 1549 1549 1548 1549 1551 1553 1558 1561 1561 1564 1569 1571 1571 1571 1571 1572 1574 1579 1583 1583 1582 1582 1583 1583 1582 1581 1582 1581 1580 1581 1583 1583 1582 1581 1580 1579 1577 1575 1576 1576 1576 1576 1573 1569 1568 1569 1571 1571 1570 1569 1570 1567 1561 1559 1561 1556 1549 1546 1544 1543 1544 1542 1536 1528 1524 1525 1524 1521 1518 1514 1510 1511 1510 1501 1495 1495 1495
1551 1551 1551 1551 1550 1550 1550 1550 1551 1550 1550 1550 1550 1550 1552 1553 1556 1560 1561 1565 1569 1571 1572 1572 1572 1574 1577 1579 1583 1584 1583 1583 1584 1585 1584 1582 1582 1583 1582 1582 1583 1582 1582 1581 1580 1581 1580 1579 1579 1579 1578 1577 1575 1572 1569 1570 1571 1571 1569 1570 1570 1565 1560 1559 1560 1555 1545 1538 1538 1539 1540 1540 1535 1526 1521 1523 1521 1514 1511 1508 1507 1508 1508 1504 1503 1504 1505
1554 1554 1554 1553 1553 1553 1553 1552 1553 1553 1553 1553 1552 1552 1554 1554 1556 1558 1559 1566 1572 1573 1573 1574 1574 1577 1580 1581 1583 1584 1584 1585 1585 1585 1586 1584 1584 1584 1584 1584 1583 1582 1582 1582 1581 1581 1582 1580 1579 1579 1578 1577 1574 1573 1572 1572 1572 1571 1570 1570 1569 1567 1564 1560 1560 1556 1542 1532 1534 1536 1537 1536 1530 1523 1522 1520 1516 1512 1510 1509 1512 1515 1516 1513 1513 1514 1514
1557 1557 1557 1556 1556 1555 1555 1555 1555 1556 1556 1555 1554 1555 1556 1557 1558 1559 1559 1566 1575 1575 1575 1576 1576 1580 1584 1584 1584 1584 1584 1586 1586 1584 1585 1586 1586 1586 1586 1586 1585 1583 1582 1581 1581 1581 1580 1579 1577 1576 1575 1574 1573 1572 1572 1573 1574 1573 1572 1571 1570 1570 1568 1562 1563 1558 1540 1530 1534 1536 1534 1529 1520 1518 1522 1519 1515 1515 1514 1514 1520 1523 1522 1522 1523 1523 1519
1561 1560 1560 1560 1559 1559 1558 1558 1558 1558 1559 1558 1556 1557 1559 1559 1560 1561 1560 1567 1577 1578 1577 1579 1580 1583 1586 1585 1585 1586 1585 1586 1587 1585 1586 1587 1588 1588 1587 1587 1586 1584 1582 1581 1581 1579 1576 1574 1573 1572 1571 1570 1570 1570 1570 1571 1572 1572 1572 1572 1570 1571 1570 1567 1567 1561 1543 1535 1538 1536 1531 1525 1517 1518 1526 1526 1523 1523 1522 1523 1526 1525 1523 1525 1525 1522 1517
1564 1563 1563 1563 1562 1562 1561 1561 1561 1560 1560 1561 1560 1559 1561 1561 1562 1562 1561 1569 1579 1580 1579 1583 1585 1585 1586 1586 1586 1587 1587 1588 1588 1588 1588 1589 1589 1588 1588 1587 1586 1584 1582 1581 1579 1576 1574 1572 1570 1569 1569 1568 1568 1568 1568 1568 1568 1569 1570 1571 1570 1570 1570 1568 1567 1562 1550 1542 1543 1539 1530 1521 1518 1521 1528 1529 1527 1526 1525 1525 1527 1525 1522 1523 1521 1516 1513
1567 1566 1566 1566 1565 1565 1564 1564 1564 1563 1562 1564 1563 1562 1563 1563 1564 1564 1564 1570 1581 1584 1582 1585 1587 1586 1587 1588 1588 1588 1589 1589 1590 1590 1590 1590 1589 1589 1588 1587 1586 1584 1582 1580 1578 1575 1573 1570 1568 1567 1566 1567 1566 1565 1565 1565 1565 1567 1568 1569 1570 1570 1569 1568 1566 1562 1552 1543 1545 1543 1528 1517 1521 1527 1527 1527 1528 1527 1526 1524 1523 1524 1521 1519 1518 1514 1511
1569 1569 1569 1569 1568 1568 1567 1567 1566 1566 1565 1566 1566 1565 1565 1565 1566 1566 1565 1571 1583 1588 1585 1585 1588 1588 1588 1589 1589 1590 1590 1590 1590 1590 1590 1590 1589 1589 1588 1587 1586 1584 1581 1579 1576 1575 1573 1570 1568 1566 1563 1562 1562 1559 1559 1561 1563 1565 1566 1566 1568 1569 1569 1569 1565 1559 1553 1548 1546 1542 1528 1521 1532 1538 1536 1538 1540 1536 1532 1526 1521 1520 1518 1516 1515 1512 1508
1572 1572 1572 1571 1571 1571 1570 1570 1569 1569 1568 1568 1568 1568 1568 1568 1567 1568 1568 1570 1579 1586 1586 1586 1588 1589 1590 1590 1590 1590 1590 1590 1591 1590 1590 1590 1589 1588 1587 1586 1585 1583 1581 1579 1577 1576 1575 1573 1573 1571 1566 1564 1564 1561 1558 1559 1561 1564 1565 1565 1567 1568 1568 1569 1565 1558 1556 1554 1551 1546 1535 1533 1545 1550 1544 1543 1540 1533 1529 1524 1517 1515 1516 1515 1514 1512 1508
1575 1575 1575 1574 1574 1573 1573 1573 1572 1571 1571 1571 1571 1570 1570 1570 1570 1570 1571 1569 1573 1582 1588 1589 1589 1590 1590 1590 1590 1590 1590 1591 1591 1590 1590 1589 1589 1588 1587 1586 1585 1584 1582 1580 1579 1578 1577 1576 1577 1578 1573 1569 1570 1567 1563 1561 1561 1562 1565 1566 1567 1568 1568 1569 1569 1564 1560 1557 1555 1548 1537 1538 1551 1551 1541 1538 1535 1526 1521 1518 1513 1515 1518 1518 1516 1513 1509
1578 1578 1577 1577 1577 1576 1576 1575 1574 1574 1574 1573 1574 1573 1572 1572 1572 1572 1573 1571 1574 1584 1590 1590 1590 1591 1591 1591 1591 1591 1591 1591 1591 1591 1590 1590 1589 1588 1587 1586 1585 1584 1583 1581 1580 1580 1580 1579 1580 1580 1576 1572 1572 1571 1568 1567 1564 1561 1562 1563 1565 1567 1570 1570 1568 1564 1561 1560 1556 1544 1538 1546 1554 1549 1541 1539 1531 1521 1522 1525 1522 1521 1523 1522 1518 1514 1509
1581 1581 1580 1580 1579 1578 1578 1577 1577 1577 1576 1575 1576 1575 1574 1575 1574 1574 1574 1573 1576 1586 1592 1591 1591 1592 1591 1592 1592 1592 1593 1593 1592 1592 1591 1591 1591 1590 1588 1587 1586 1585 1583 1583 1583 1583 1582 1581 1581 1581 1577 1574 1574 1573 1571 1570 1567 1561 1559 1560 1558 1558 1562 1565 1564 1557 1554 1557 1552 1539 1540 1553 1554 1545 1542 1538 1526 1525 1537 1542 1534 1526 1524 1522 1517 1513 1508
1584 1583 1582 1582 1581 1581 1580 1580 1579 1579 1578 1577 1577 1577 1576 1577 1576 1576 1576 1574 1577 1586 1592 1592 1592 1592 1592 1593 1593 1593 1594 1594 1593 1594 1593 1592 1592 1591 1590 1589 1588 1587 1586 1585 1585 1585 1584 1583 1583 1583 1581 1577 1575 1574 1572 1571 1568 1563 1561 1561 1559 1556 1555 1557 1559 1554 1549 1550 1546 1538 1541 1550 1551 1546 1544 1539 1535 1541 1548 1545 1535 1528 1523 1519 1515 1511 1506
1586 1585 1584 1584 1584 1583 1582 1582 1581 1580 1580 1579 1579 1579 1578 1579 1579 1578 1578 1577 1579 1586 1592 1593 1593 1593 1594 1594 1594 1594 1595 1595 1594 1595 1595 1595 1593 1591 1590 1591 1590 1589 1589 1587 1586 1587 1587 1586 1585 1584 1583 1580 1577 1575 1573 1570 1566 1565 1564 1562 1561 1561 1558 1556 1556 1554 1550 1549 1548 1547 1550 1552 1552 1550 1547 1544 1547 1551 1546 1538 1533 1528 1522 1516 1512 1508 1504
1588 1587 1587 1586 1585 1585 1584 1584 1583 1582 1581 1580 1580 1580 1580 1581 1581 1579 1579 1579 1580 1584 1591 1594 1594 1594 1595 1595 1595 1595 1595 1596 1596 1596 1596 1596 1595 1593 1593 1595 1594 1592 1592 1592 1590 1590 1589 1588 1588 1586 1583 1582 1579 1576 1576 1573 1567 1564 1564 1562 1562 1566 1569 1568 1566 1562 1562 1562 1559 1559 1561 1558 1556 1555 1551 1548 1549 1547 1540 1533 1528 1522 1518 1514 1509 1504 1501
1590 1589 1589 1588 1587 1587 1586 1585 1585 1584 1583 1582 1582 1582 1581 1582 1581 1581 1581 1582 1581 1584 1591 1595 1595 1595 1595 1595 1596 1596 1596 1597 1597 1596 1596 1596 1596 1595 1596 1597 1596 1594 1594 1594 1593 1592 1591 1590 1590 1588 1585 1584 1581 1578 1578 1578 1571 1565 1564 1564 1568 1574 1577 1576 1573 1570 1573 1573 1568 1563 1561 1557 1556 1555 1551 1547 1543 1540 1536 1531 1524 1518 1515 1511 1505 1501 1497
1592 1591 1591 1590 1589 1589 1588 1587 1587 1586 1585 1584 1584 1583 1582 1583 1583 1583 1583 1584 1584 1587 1592 1595 1595 1596 1597 1596 1597 1597 1597 1598 1597 1597 1597 1596 1596 1596 1596 1596 1595 1595 1594 1594 1593 1593 1593 1592 1591 1589 1587 1585 1582 1580 1578 1577 1573 1570 1569 1569 1573 1578 1577 1575 1574 1574 1573 1570 1566 1562 1558 1555 1554 1552 1549 1545 1540 1535 1531 1527 1522 1517 1513 1508 1504 1500 1494
1594 1593 1592 1591 1591 1590 1590 1589 1588 1587 1587 1586 1585 1584 1584 1584 1585 1585 1584 1584 1585 1588 1593 1596 1597 1597 1598 1598 1598 1598 1598 1598 1597 1597 1597 1596 1596 1596 1596 1595 1595 1594 1593 1593 1593 1592 1592 1591 1590 1590 1588 1584 1582 1581 1580 1577 1574 1573 1573 1575 1577 1577 1575 1574 1575 1576 1573 1568 1564 1562 1559 1554 1551 1548 1544 1541 1538 1533 1529 1525 1519 1514 1509 1504 1500 1496 1491
1596 1595 1594 1593 1593 1592 1591 1591 1590 1589 1588 1588 1587 1587 1586 1585 1586 1586 1586 1586 1586 1587 1592 1597 1598 1599 1599 1599 1599 1599 1599 1599 1598 1597 1597 1596 1595 1595 1595 1594 1594 1592 1592 1591 1591 1591 1592 1590 1589 1590 1588 1584 1581 1581 1580 1579 1576 1575 1579 1585 1585 1580 1578 1578 1576 1575 1574 1570 1566 1563 1559 1555 1551 1546 1541 1536 1532 1528 1525 1521 1516 1510 1505 1499 1495 1491 1486
1597 1597 1596 1595 1594 1594 1593 1592 1592 1591 1590 1590 1589 1588 1587 1587 1587 1587 1586 1587 1587 1587 1591 1597 1599 1599 1600 1600 1600 1600 1600 1599 1598 1597 1596 1595 1594 1594 1593 1592 1592 1590 1590 1589 1589 1589 1590 1589 1589 1590 1588 1585 1582 1580 1579 1578 1578 1580 1585 1591 1590 1585 1582 1582 1579 1576 1572 1567 1563 1560 1555 1549 1546 1545 1541 1536 1531 1525 1521 1517 1513 1506 1500 1494 1488 1484 1481
1599 1599 1598 1597 1596 1595 1595 1594 1593 1593 1592 1591 1590 1589 1589 1588 1588 1588 1587 1587 1587 1587 1590 1595 1599 1600 1600 1600 1601 1601 1600 1599 1598 1597 1596 1595 1594 1592 1592 1591 1590 1589 1588 1588 1587 1587 1588 1588 1588 1588 1586 1584 1582 1580 1579 1578 1579 1584 1589 1590 1588 1586 1586 1584 1582 1578 1573 1567 1564 1562 1555 1547 1542 1541 1539 1535 1530 1524 1519 1514 1508 1501 1495 1489 1483 1476 1472
1601 1600 1600 1599 1598 1597 1596 1596 1595 1594 1594 1593 1591 1590 1590 1589 1589 1589 1588 1588 1587 1587 1590 1594 1598 1599 1600 1601 1601 1601 1600 1599 1598 1597 1596 1594 1593 1591 1590 1589 1588 1587 1586 1586 1586 1586 1587 1587 1586 1584 1584 1584 1582 1580 1579 1578 1580 1586 1591 1590 1589 1589 1588 1587 1585 1581 1575 1570 1566 1564 1559 1551 1544 1540 1537 1533 1528 1523 1517 1512 1506 1498 1492 1487 1481 1473 1466
1602 1602 1601 1600 1599 1598 1597 1597 1596 1596 1595 1594 1592 1591 1590 1590 1590 1590 1589 1589 1589 1589 1590 1594 1598 1600 1601 1601 1601 1601 1601 1599 1598 1597 1596 1594 1592 1591 1589 1588 1586 1586 1585 1585 1585 1586 1586 1585 1584 1584 1583 1583 1582 1581 1580 1580 1583 1590 1593 1591 1590 1590 1589 1587 1585 1580 1575 1570 1566 1563 1559 1552 1545 1539 1534 1529 1525 1521 1516 1510 1504 1496 1489 1485 1480 1473 1466
1604 1603 1602 1601 1600 1599 1598 1597 1597 1596 1595 1594 1593 1592 1591 1591 1591 1591 1590 1590 1591 1591 1591 1594 1598 1600 1601 1602 1602 1601 1601 1599 1598 1596 1595 1593 1592 1590 1588 1587 1586 1585 1585 1585 1584 1585 1585 1584 1583 1583 1583 1583 1583 1582 1582 1583 1587 1591 1591 1589 1588 1587 1586 1584 1583 1578 1573 1569 1565 1561 1556 1549 1543 1537 1531 1525 1521 1518 1512 1506 1501 1493 1486 1481 1476 1470 1464
1605 1603 1602 1601 1600 1599 1598 1597 1596 1596 1595 1594 1593 1592 1592 1592 1592 1592 1592 1592 1592 1592 1593 1594 1598 1601 1602 1602 1602 1602 1601 1599 1597 1596 1594 1592 1591 1589 1587 1586 1585 1584 1584 1584 1584 1584 1584 1583 1583 1583 1583 1583 1583 1583 1585 1589 1592 1592 1590 1588 1586 1585 1582 1581 1579 1575 1570 1566 1561 1557 1552 1546 1539 1532 1525 1519 1516 1513 1506 1500 1495 1488 1481 1476 1471 1465 1459
1605 1604 1603 1602 1601 1600 1599 1598 1597 1596 1596 1594 1593 1593 1594 1595 1594 1594 1594 1593 1593 1593 1594 1595 1599 1601 1602 1602 1602 1602 1600 1598 1596 1594 1593 1591 1589 1588 1586 1585 1585 1584 1584 1584 1584 1583 1583 1582 1582 1583 1583 1583 1583 1584 1589 1594 1596 1594 1590 1587 1585 1582 1579 1576 1574 1570 1566 1561 1557 1551 1546 1541 1537 1530 1522 1515 1511 1508 1502 1495 1488 1481 1475 1469 1464 1458 1453
1606 1605 1603 1602 1601 1600 1599 1599 1598 1597 1596 1595 1595 1595 1596 1596 1595 1595 1595 1595 1595 1595 1595 1596 1600 1602 1603 1603 1603 1601 1599 1597 1595 1594 1591 1589 1588 1587 1586 1585 1585 1584 1584 1584 1583 1583 1582 1582 1582 1582 1583 1583 1583 1586 1591 1595 1595 1593 1591 1587 1584 1580 1576 1572 1569 1565 1560 1557 1554 1549 1543 1538 1534 1528 1519 1511 1506 1503 1498 1491 1484 1476 1468 1462 1456 1450 1444
1606 1605 1604 1603 1602 1601 1600 1599 1599 1598 1597 1596 1597 1597 1597 1597 1597 1596 1596 1596 1596 1596 1597 1599 1603 1605 1604 1602 1602 1601 1599 1597 1596 1594 1591 1589 1588 1587 1586 1585 1584 1584 1584 1584 1583 1582 1582 1582 1582 1582 1583 1583 1584 1588 1593 1595 1593 1591 1589 1586 1583 1579 1573 1568 1564 1560 1555 1552 1549 1546 1542 1536 1530 1522 1513 1504 1498 1495 1490 1485 1479 1471 1463 1456 1451 1445 1439
1606 1605 1604 1603 1602 1601 1601 1600 1599 1599 1598 1598 1598 1598 1599 1599 1598 1597 1597 1597 1597 1598 1600 1603 1606 1609 1608 1605 1603 1601 1599 1598 1597 1596 1593 1590 1588 1587 1586 1585 1584 1584 1584 1584 1583 1583 1582 1582 1582 1583 1583 1585 1589 1594 1596 1594 1591 1589 1587 1583 1580 1576 1571 1566 1560 1556 1552 1548 1544 1539 1535 1531 1526 1518 1509 1500 1493 1489 1484 1478 1472 1467 1459 1451 1445 1440 1434
1606 1605 1604 1603 1603 1602 1601 1601 1600 1599 1598 1599 1599 1600 1600 1600 1599 1599 1599 1598 1598 1600 1603 1606 1610 1612 1613 1611 1607 1603 1600 1599 1598 1596 1594 1591 1588 1587 1586 1586 1585 1585 1584 1584 1584 1584 1583 1582 1583 1583 1585 1589 1595 1597 1596 1593 1590 1588 1585 1582 1579 1576 1572 1567 1561 1554 1549 1545 1540 1533 1527 1524 1520 1514 1507 1499 1492 1486 1481 1474 1467 1462 1455 1448 1441 1436 1430
1606 1606 1605 1604 1603 1602 1601 1601 1600 1599 1599 1599 1600 1600 1601 1601 1600 1600 1600 1600 1600 1602 1604 1607 1612 1614 1615 1613 1610 1606 1602 1601 1598 1596 1594 1592 1590 1588 1587 1587 1587 1586 1584 1584 1585 1585 1583 1582 1583 1586 1589 1593 1595 1596 1594 1592 1590 1587 1584 1581 1578 1574 1571 1567 1561 1554 1547 1541 1536 1530 1523 1517 1513 1508 1501 1493 1487 1481 1476 1470 1464 1459 1452 1445 1439 1433 1427
1606 1606 1605 1604 1603 1602 1601 1601 1601 1600 1600 1600 1600 1600 1601 1601 1601 1601 1602 1602 1603 1605 1606 1609 1613 1615 1614 1613 1610 1606 1604 1602 1601 1598 1596 1594 1592 1589 1588 1588 1589 1588 1586 1586 1586 1584 1583 1583 1585 1589 1592 1593 1593 1593 1592 1590 1588 1586 1583 1580 1576 1572 1569 1564 1559 1553 1546 1538 1533 1528 1521 1514 1508 1503 1497 1489 1483 1477 1472 1466 1461 1456 1450 1443 1436 1430 1424
1606 1606 1605 1604 1603 1602 1602 1602 1601 1601 1600 1600 1600 1601 1602 1602 1602 1604 1606 1606 1607 1609 1610 1612 1614 1615 1614 1612 1610 1607 1605 1604 1603 1602 1600 1597 1595 1593 1592 1592 1591 1590 1589 1588 1586 1584 1584 1585 1587 1591 1594 1594 1592 1592 1591 1588 1586 1583 1580 1577 1574 1570 1566 1562 1558 1553 1547 1540 1534 1529 1523 1517 1510 1504 1497 1488 1480 1474 1468 1462 1457 1452 1446 1439 1433 1427 1421
1606 1605 1604 1604 1603 1603 1602 1602 1601 1601 1601 1601 1600 1601 1603 1605 1606 1609 1610 1611 1613 1614 1615 1616 1616 1616 1615 1614 1612 1609 1607 1606 1605 1604 1603 1601 1599 1597 1596 1595 1594 1593 1593 1591 1587 1586 1587 1587 1588 1591 1594 1593 1591 1590 1588 1585 1583 1580 1577 1574 1570 1567 1563 1559 1555 1551 1546 1539 1532 1526 1521 1515 1510 1504 1498 1489 1480 1472 1465 1459 1453 1448 1442 1436 1430 1424 1419
1606 1605 1604 1604 1603 1603 1602 1602 1601 1601 1601 1601 1602 1605 1608 1609 1611 1613 1614 1615 1618 1619 1619 1618 1618 1616 1615 1614 1613 1610 1608 1607 1606 1606 1604 1602 1600 1599 1598 1598 1597 1596 1594 1591 1589 1588 1589 1589 1590 1592 1594 1592 1591 1589 1586 1583 1580 1577 1575 1571 1567 1563 1560 1555 1550 1545 1540 1534 1527 1520 1514 1508 1504 1499 1494 1487 1480 1472 1465 1458 1451 1445 1440 1435 1429 1423 1416
1606 1605 1604 1604 1603 1603 1602 1602 1601 1601 1602 1602 1605 1610 1614 1615 1616 1617 1618 1619 1621 1622 1620 1619 1619 1617 1615 1614 1613 1611 1609 1607 1606 1606 1605 1603 1601 1600 1601 1601 1600 1597 1593 1591 1591 1590 1589 1589 1591 1593 1593 1591 1590 1587 1584 1581 1578 1574 1571 1568 1564 1560 1556 1551 1546 1541 1536 1530 1523 1516 1509 1503 1498 1494 1490 1484 1477 1470 1464 1457 1449 1442 1437 1433 1428 1421 1415
1606 1605 1604 1604 1603 1603 1603 1603 1602 1603 1606 1608 1609 1612 1617 1619 1620 1621 1622 1622 1622 1623 1621 1620 1619 1618 1615 1614 1612 1610 1609 1608 1607 1606 1606 1604 1602 1602 1602 1602 1600 1597 1594 1592 1592 1591 1589 1590 1593 1594 1592 1590 1588 1586 1582 1579 1575 1571 1567 1564 1561 1557 1553 1549 1543 1537 1532 1526 1520 1513 1505 1499 1493 1489 1485 1481 1474 1466 1459 1452 1446 1440 1434 1428 1422 1418 1413
1606 1605 1604 1603 1603 1603 1603 1604 1605 1606 1610 1615 1616 1616 1618 1620 1621 1622 1623 1622 1622 1623 1622 1621 1620 1618 1616 1614 1612 1610 1609 1609 1608 1607 1606 1605 1604 1604 1603 1600 1599 1596 1594 1594 1595 1594 1592 1592 1593 1593 1591 1588 1586 1583 1580 1577 1573 1568 1563 1560 1557 1554 1549 1545 1540 1534 1528 1522 1516 1509 1502 1494 1488 1482 1478 1475 1470 1464 1456 1448 1441 1435 1429 1424 1418 1413 1409
1606 1605 1603 1604 1605 1604 1604 1606 1609 1611 1614 1619 1620 1620 1620 1621 1622 1623 1623 1623 1622 1622 1621 1620 1620 1619 1616 1614 1613 1612 1611 1610 1609 1608 1608 1607 1606 1605 1603 1601 1600 1599 1598 1597 1596 1594 1593 1593 1593 1591 1589 1586 1583 1580 1578 1575 1572 1567 1562 1556 1553 1550 1546 1541 1536 1531 1525 1518 1512 1506 1499 1491 1484 1478 1473 1469 1465 1461 1455 1448 1440 1432 1426 1421 1414 1406 1401
1606 1606 1605 1605 1607 1608 1609 1611 1614 1616 1618 1620 1621 1621 1621 1622 1622 1623 1623 1622 1622 1621 1620 1619 1618 1617 1616 1614 1614 1613 1612 1611 1610 1610 1610 1609 1607 1604 1602 1601 1601 1600 1599 1597 1595 1593 1593 1594 1593 1591 1588 1585 1581 1578 1576 1573 1570 1566 1561 1555 1550 1547 1543 1539 1534 1529 1523 1516 1510 1503 1496 1489 1482 1475 1470 1464 1460 1456 1451 1445 1440 1434 1427 1421 1413 1404 1396
1607 1607 1606 1607 1610 1612 1613 1614 1616 1618 1619 1620 1620 1620 1621 1621 1621 1622 1622 1621 1621 1620 1619 1618 1617 1616 1615 1615 1614 1613 1613 1613 1612 1611 1610 1610 1608 1606 1604 1603 1604 1605 1602 1598 1596 1596 1596 1595 1593 1590 1587 1585 1580 1577 1573 1570 1567 1564 1559 1554 1549 1545 1541 1536 1532 1526 1520 1514 1507 1501 1494 1487 1480 1474 1467 1460 1456 1452 1447 1441 1437 1433 1426 1419 1412 1404 1396
1607 1607 1607 1609 1613 1615 1615 1616 1618 1619 1619 1620 1620 1620 1620 1621 1621 1621 1621 1620 1620 1619 1617 1616 1616 1615 1615 1615 1614 1614 1614 1613 1612 1611 1612 1611 1609 1607 1605 1604 1604 1606 1605 1602 1600 1599 1598 1595 1592 1589 1586 1583 1579 1575 1571 1568 1564 1561 1557 1552 1547 1542 1538 1533 1529 1523 1517 1511 1505 1499 1493 1487 1480 1473 1466 1458 1452 1448 1444 1439 1434 1429 1423 1416 1408 1401 1393
1608 1608 1609 1612 1615 1616 1617 1617 1618 1619 1619 1619 1620 1620 1620 1620 1620 1620 1620 1619 1619 1618 1616 1616 1615 1615 1615 1615 1614 1614 1615 1614 1613 1613 1613 1611 1609 1610 1611 1609 1605 1602 1602 1602 1601 1600 1597 1595 1591 1587 1584 1581 1578 1574 1570 1566 1562 1559 1554 1550 1546 1541 1536 1531 1526 1521 1515 1510 1503 1497 1491 1485 1478 1471 1464 1456 1448 1443 1441 1437 1431 1425 1419 1413 1406 1398 1392
1609 1610 1612 1613 1615 1616 1617 1618 1618 1618 1619 1619 1619 1619 1619 1619 1619 1619 1619 1619 1618 1617 1616 1615 1615 1615 1615 1615 1615 1615 1615 1615 1615 1615 1612 1610 1611 1614 1614 1610 1605 1601 1600 1601 1601 1599 1596 1593 1590 1585 1581 1579 1576 1572 1569 1564 1560 1555 1551 1548 1544 1540 1534 1529 1523 1518 1513 1508 1501 1494 1487 1481 1475 1469 1463 1455 1447 1441 1438 1435 1429 1423 1416 1411 1405 1398 1391
1611 1612 1614 1614 1615 1615 1616 1617 1617 1617 1617 1618 1618 1618 1618 1618 1618 1618 1618 1618 1617 1617 1616 1615 1616 1616 1616 1615 1614 1614 1614 1615 1617 1617 1613 1612 1613 1614 1610 1605 1603 1602 1600 1599 1598 1597 1594 1591 1588 1583 1579 1576 1573 1570 1567 1563 1558 1553 1549 1546 1542 1538 1532 1526 1521 1515 1509 1504 1498 1491 1483 1476 1471 1467 1461 1454 1446 1438 1430 1425 1421 1417 1412 1406 1401 1396 1391
1612 1613 1614 1615 1615 1615 1616 1616 1616 1617 1617 1617 1617 1617 1617 1617 1617 1618 1618 1617 1617 1616 1616 1616 1616 1616 1616 1615 1615 1615 1614 1615 1616 1615 1612 1609 1609 1609 1607 1604 1602 1601 1599 1597 1595 1594 1591 1589 1586 1582 1578 1574 1571 1568 1565 1561 1557 1551 1547 1543 1539 1535 1529 1523 1518 1512 1506 1500 1495 1489 1482 1474 1468 1463 1457 1450 1442 1435 1426 1418 1413 1409 1406 1401 1397 1393 1389